Hourly Data Report for October 09, 2016

All times are specified in Local Standard Time (LST). Add 1 hour to adjust for Daylight Saving Time where and when it is observed.

EUREKA CLIMATE
NUNAVUT

79°59'21.000" N
85°56'02.000" W
10.00 m
2401199
71613
NEK

Download Data

Hourly Data (October 2016)
Hourly Data Report for October 9, 2016
Temp Definition
°C
Dew Point Temp Definition
°C
Rel Hum Definition
%
Wind Dir Definition
10's deg

Wind Spd Definition
km/h
Visibility Definition
km
Stn Press Definition
kPa
Hmdx Definition


Wind Chill Definition


Weather Definition


TIME
00:00 -12.6 -14.1 89 2 10   100.95   -18 LegendNANA
01:00 -12.1 -13.5 89 1 12   100.95   -18 LegendNANA
02:00 -12.1 -13.8 87 35 7   100.96   -16 LegendNANA
03:00 -15.1 -16.4 90 8 4   100.98   -18 LegendNANA
04:00 -15.0 -16.3 90 2 8   100.98   -20 LegendNANA
05:00 -15.4 -16.1 95 3 9   101.02   -21 LegendNANA
06:00 -16.1 -17.3 91 3 6   101.02   -21 LegendNANA
07:00 -15.8 -16.8 92 8 5   101.05   -20 LegendNANA
08:00 -17.6 -18.9 90 4 7   101.07   -23 LegendNANA
09:00 -18.3 -19.7 89 2 10   101.07   -25 LegendNANA
10:00 -17.6 -19.0 89 4 5   101.06   -22 LegendNANA
11:00 -17.0 -18.2 91 7 3   101.07   -19 LegendNANA
12:00 -17.4 -18.7 90 7 2   101.09   -19 LegendNANA
13:00 -18.3 -19.7 89 2 7   101.10   -24 LegendNANA
14:00 -19.2 -20.7 88 3 4   101.13   -23 LegendNANA
15:00 -19.0 -20.5 88 5 3   101.15   -21 LegendNANA
16:00 -18.8 -20.3 88 2 4   101.17   -22 LegendNANA
17:00 -18.3 -19.7 89 7 2   101.18   -20 LegendNANA
18:00 -18.2 -19.7 88 10 1   101.20   -19 LegendNANA
19:00 -19.2 -20.7 88 4 3   101.21   -22 LegendNANA
20:00 -19.7 -21.4 86 4 1   101.22   -21 LegendNANA
21:00 -19.3 -20.8 88 6 2   101.22   -21 LegendNANA
22:00 -20.6 -22.3 86 3 4   101.21   -24 LegendNANA
23:00 -19.3 -20.8 88 8 2   101.22   -21 LegendNANA

Notes on Data Quality.

Legend

  • E = Estimated
  • M = Missing
  • NA = Not Available
  • ‡ = Partner data that is not subject to review by the National Climate Archives
Date modified: